Regional Weather Roundup
Issued by NWS

Home | Current Version | Previous Version | Graphics & Text | Print | Product List | Glossary On
Versions: 1 2 3 4 5 6 7 8 9 10 11 12 13 14 15 16 17 18 19 20 21 22 23 24 25 26 27 28 29 30 31 32 33 34 35 36 37 38 39 40 41 42 43 44 45 46 47 48 49 50
000
ASUS43 KLOT 201306
RWRIL

ILLINOIS REGIONAL WEATHER ROUNDUP
NATIONAL WEATHER SERVICE CHICAGO/ROMEOVILLE IL
800 AM CDT SAT SEP 20 2014

NOTE: "FAIR" INDICATES FEW OR NO CLOUDS BELOW 12,000 FEET WITH NO
SIGNIFICANT WEATHER AND/OR OBSTRUCTIONS TO VISIBILITY.

* THESE STATIONS ARE NOT UNDER NWS QUALITY CONTROL. THEY ALSO MAY NOT
  REPORT WEATHER SUCH AS PRECIPITATION OR FOG.

ILZ001-002-007-009-015-016-024-201400-
NORTHWEST ILLINOIS

CITY           SKY/WX    TMP DP  RH WIND       PRES   REMARKS
MOLINE         CLOUDY    64  61  90 SW10      29.89F FOG
STERLING*      CLOUDY    63  57  82 S3        29.89F
SAVANNA*       CLOUDY    65  61  88 S13       29.82F FOG
$$

ILZ003-004-008-010-011-017-018-201400-
NORTH CENTRAL ILLINOIS

CITY           SKY/WX    TMP DP  RH WIND       PRES   REMARKS
ROCKFORD       CLOUDY    63  58  83 S14       29.88F
FREEPORT*      CLOUDY    62  60  93 S16       29.84F
ROCHELLE*      CLOUDY    61  57  87 S10       29.89F
DE KALB*       CLOUDY    57  54  91 S14       29.90F
PERU*          CLOUDY    61  58  89 S8        29.94S
$$

ILZ005-006-012>014-019>023-201400-
NORTHEAST ILLINOIS

CITY           SKY/WX    TMP DP  RH WIND       PRES   REMARKS
CHICAGO-OHARE  CLOUDY    65  55  70 SW13G18   29.89F
CHICAGO-MIDWAY CLOUDY    64  56  75 SW16      29.92F
AURORA         PTSUNNY   60  55  83 S7        29.92F HAZE
LANSING*       PTSUNNY   60  55  81 SW10      29.95F
JOLIET*        PTSUNNY   62  56  78 S9        29.94F
WAUKEGAN       CLOUDY    63  56  78 SW15G24   29.84F
DUPAGE AIRPORT PTSUNNY   60  55  83 S10       29.91F
KANKAKEE*      PTSUNNY   61  56  85 S8        29.97F
WHEELING       CLOUDY    65  55  70 S12       29.90F
MORRIS*        PTSUNNY   62  58  90 S6        29.93F
ROMEOVILLE*    PTSUNNY   63  56  79 SW12      29.92F
NORTHERLY ISL    N/A     64  54  69 S9          N/A
$$

LMZ740>746-201400-
SOUTHERN LAKE MICHIGAN

STATION/POSITION SKY/WX   TEMP    WIND        PRES    VSBY  WAVE
                          AIR SEA DIR/SP/G                  HT/PER
                          (F)     (DEG/KT/KT) (MB)    (MI)  (FT/S)
SOUTHERN BUOY              64 64  200/ 21/ 27 1009.9F         4/ 6
WAUKEGAN HARBOR            64     230/ 17/ 24   N/A
HARRISON CRIB              64     200/ 24/ 30   N/A
BURNHAM HARBOR             65     240/  8/ 11   N/A
CALUMET HARBOR             64     200/ 10/ 14 1012.2F
MICHIGAN CITY              64     180/ 20/ 25   N/A
MICHIGAN CITY 6N           65 65  210/ 17/ 23   N/A           3/ 4
ST. JOSEPH                 65 65  190/ 19/ 25   N/A           4/ 4
$$

ILZ025>027-034>036-040-047-049-050-058-095>099-201400-
WEST-CENTRAL ILLINOIS

CITY           SKY/WX    TMP DP  RH WIND       PRES   REMARKS
QUINCY         MOSUNNY   64  62  93 SW3       30.01R FOG
GALESBURG*     CLOUDY    62  60  94 S9        29.94F
MACOMB*        CLOUDY    63  61  93 SW10      29.99F
JACKSONVILLE*  MOSUNNY   65  63  90 S6        30.01S
PITTSFIELD*    SUNNY     67  63  87 SW6       30.02R
$$

ILZ028>032-037-038-041>044-048-051>054-059>061-201400-
CENTRAL ILLINOIS

CITY           SKY/WX    TMP DP  RH WIND       PRES   REMARKS
PONTIAC        PTSUNNY   64  61  88 S8        29.97F
DECATUR        MOSUNNY   63  57  81 SW10      30.02S
PEORIA         PTSUNNY   63  58  83 S8        29.97F HAZE
LACON*         PTSUNNY   64  59  84 SW3       29.95R
LINCOLN*       PTSUNNY   62  59  88 CALM      29.99R
SPRINGFIELD    MOSUNNY   65  60  84 SW8       30.00S
TAYLORVILLE    MOSUNNY   61  55  82 S6        30.02S
$$

ILZ033-039-045-046-055>057-062-063-201400-
EAST-CENTRAL ILLINOIS

CITY           SKY/WX    TMP DP  RH WIND       PRES   REMARKS
CHAMPAIGN      MOSUNNY   62  56  80 S10       30.02F
DANVILLE*      SUNNY     60  56  86 S6        29.99F
RANTOUL*       MOSUNNY   65  58  78 SW7       30.01S
MATTOON        MOSUNNY   61  56  83 S8        30.04R
PARIS*         SUNNY     60  60  97 S6        30.05S
$$

ILZ079-100>102-201400-
SOUTHWEST ILLINOIS

CITY           SKY/WX    TMP DP  RH WIND       PRES   REMARKS
ALTON          SUNNY     61  59  94 CALM      30.03R
BELLEVILLE     SUNNY     60  60  99 CALM      30.04R
CAHOKIA*       SUNNY     63  61  93 CALM      30.04R
SPARTA*        PTSUNNY   65  61  86 S8        30.06S
$$

ILZ064>066-069>071-074>076-080>082-084>086-088>090-092>094-201400-
SOUTH-CENTRAL ILLINOIS

CITY           SKY/WX    TMP DP  RH WIND       PRES   REMARKS
CARBONDALE     PTSUNNY   63  60  90 CALM      30.07R
CAIRO*         SUNNY     63  61  94 CALM      30.08R
EFFINGHAM*     MOSUNNY   60  56  87 S3        30.05S
MARION         MOSUNNY   66  63  88 S5        30.08R
MT. VERNON     PTSUNNY   57  54  88 CALM      30.07S
CENTRALIA*     MOSUNNY   64  59  84 S7        30.05S
SALEM*         MOSUNNY   65  62  89 S5        30.06R
METROPOLIS*    CLOUDY    63  63 100 CALM      30.08R FOG
$$

ILZ067-068-072-073-078-083-087-091-201400-
SOUTHEAST ILLINOIS

CITY           SKY/WX    TMP DP  RH WIND       PRES   REMARKS
LAWRENCEVILLE  SUNNY     59  58  96 S3        30.07S FOG
FLORA*         SUNNY     58  58  98 S3        30.07R FOG
FAIRFIELD*     MOSUNNY  N/A N/A N/A CALM      30.06S
HARRISBURG*    MOSUNNY   61  61 100 CALM      30.08R FOG
ROBINSON*      MOSUNNY   58  58  99 CALM      30.07S FOG
CARMI*         MOSUNNY   63  63  99 CALM      30.07R FOG
$$

ABBREVIATIONS USED IN REMARKS
   TC - TEMPERATURE IN CELSIUS
  WCI - WIND CHILL INDEX
   HX - HEAT INDEX
  VSB - VISIBILITY
$$



USA.gov is the U.S. government's official web portal to all federal, state and local government web resources and services.